Date String (YYYY-MM-DD hh:mm:ss) UTC,Instrument flags,Ambient pressure (hPa),Sample flow (lpm),Bypass flow (lpm),Sample temperature (°C),Ambient temperature (°C),ASC tube jacket temperature (°C),LED temperature (°C),Box temperature (°C),Sample RH (%),Span deviation,Mass concentration (μg/m³),Mass concentration (μg/m³),Mass concentration (μg/m³)
DateTimeUTC,F1_M11,P_M11,Q1_M11,Q2_M11,T1_M11,T2_M11,T3_M11,T4_M11,T5_M11,U1_M11,ZSPAN_M11,X0_M11,X2_M11,X1_M11
2023-05-18 09:00:00,,0831.2,5.00,0.00,29.8,28.2,00.0,38.2,31.4,25.9,0000.0,0010.46,0005.58,0004.67
2023-05-18 09:01:00,,0831.2,4.99,0.00,29.8,28.2,00.0,38.2,31.4,25.6,0000.0,0010.40,0005.53,0004.66
2023-05-18 09:02:00,,0831.2,4.99,0.00,29.8,28.2,00.0,38.2,31.4,25.5,0000.0,0010.45,0005.53,0004.65
2023-05-18 09:03:00,,0831.2,5.00,0.00,29.8,28.2,00.0,38.2,31.4,25.5,0000.0,0010.51,0005.51,0004.62
2023-05-18 09:04:00,,0831.2,5.00,0.00,29.8,28.2,00.0,38.2,31.4,25.7,0000.0,0010.48,0005.47,0004.59
2023-05-18 09:05:00,,0831.2,5.00,0.00,29.8,28.2,00.0,38.2,31.4,25.9,0000.0,0010.00,0005.46,0004.57
2023-05-18 09:06:00,,0831.2,4.99,0.00,29.9,28.2,00.0,38.2,31.4,26.1,0000.0,0009.95,0005.44,0004.55
2023-05-18 09:07:00,,0831.2,5.01,0.00,29.8,28.3,00.0,38.2,31.4,26.4,0000.0,0009.71,0005.36,0004.54
2023-05-18 09:08:00,,0831.2,5.00,0.00,29.9,28.3,00.0,38.2,31.4,26.6,0000.0,0009.65,0005.36,0004.53
2023-05-18 09:09:00,,0831.2,5.00,0.00,29.9,28.3,00.0,38.2,31.4,26.4,0002.0,0009.79,0005.40,0004.54
2023-05-18 09:10:00,,0831.2,4.98,0.00,29.9,28.3,00.0,38.2,31.4,26.7,0002.5,0010.54,0005.44,0004.56
2023-05-18 09:11:00,,0831.1,5.00,0.00,29.9,28.3,00.0,38.2,31.4,26.6,0002.5,0011.04,0005.46,0004.57
2023-05-18 09:12:00,,0831.1,4.98,0.00,29.9,28.3,00.0,38.2,31.4,26.5,0002.2,0011.12,0005.46,0004.59
2023-05-18 09:13:00,,0831.1,5.00,0.00,29.9,28.3,00.0,38.2,31.4,26.3,0002.2,0011.04,0005.46,0004.60
2023-05-18 09:14:00,,0831.1,5.01,0.00,29.9,28.3,00.0,38.2,31.4,26.3,0002.2,0010.92,0005.46,0004.62
2023-05-18 09:15:00,,0831.1,5.00,0.00,29.9,28.3,00.0,38.2,31.4,26.3,0002.2,0010.97,0005.50,0004.66
2023-05-18 09:16:00,,0831.1,5.01,0.00,29.9,28.2,00.0,38.2,31.4,26.3,0001.9,0010.87,0005.49,0004.67
2023-05-18 09:17:00,,0831.1,5.00,0.00,29.9,28.3,00.0,38.3,31.4,26.5,0002.1,0010.42,0005.52,0004.68
2023-05-18 09:18:00,,0831.2,4.99,0.00,29.9,28.3,00.0,38.3,31.4,26.6,0002.6,0010.63,0005.56,0004.69
2023-05-18 09:19:00,,0831.1,5.00,0.00,29.9,28.3,00.0,38.3,31.4,26.6,0002.8,0010.75,0005.58,0004.70
2023-05-18 09:20:00,,0831.1,5.01,0.00,29.9,28.3,00.0,38.3,31.4,26.5,0003.0,0010.62,0005.56,0004.71
2023-05-18 09:21:00,,0831.1,4.99,0.00,29.9,28.3,00.0,38.3,31.5,26.3,0003.3,0009.96,0005.56,0004.71
2023-05-18 09:22:00,,0831.1,4.99,0.00,29.9,28.3,00.0,38.3,31.5,26.1,0003.3,0009.35,0005.57,0004.72
2023-05-18 09:23:00,,0831.1,5.01,0.00,29.9,28.3,00.0,38.3,31.5,25.9,0003.8,0009.37,0005.58,0004.72
2023-05-18 09:24:00,,0831.1,5.00,0.00,29.9,28.3,00.0,38.3,31.5,25.9,0003.9,0009.46,0005.62,0004.73
2023-05-18 09:25:00,,0831.1,4.99,0.00,29.9,28.3,00.0,38.3,31.4,26.0,0004.0,0009.59,0005.63,0004.73
2023-05-18 09:26:00,,0831.1,5.01,0.00,29.9,28.3,00.0,38.3,31.5,26.0,0000.7,0009.61,0005.60,0004.72
2023-05-18 09:27:00,,0831.1,4.99,0.00,29.9,28.3,00.0,38.3,31.5,25.9,0000.0,0009.70,0005.61,0004.71
2023-05-18 09:28:00,,0831.0,4.99,0.00,29.9,28.3,00.0,38.3,31.5,25.9,0000.0,0009.76,0005.61,0004.71
2023-05-18 09:29:00,,0831.0,5.01,0.00,29.9,28.3,00.0,38.3,31.5,25.9,0000.0,0009.69,0005.56,0004.68
2023-05-18 09:30:00,,0831.0,5.01,0.00,29.9,28.3,00.0,38.3,31.5,26.0,0000.0,0009.97,0005.55,0004.66
2023-05-18 09:31:00,,0830.9,4.99,0.00,29.9,28.3,00.0,38.3,31.5,26.0,0000.0,0010.01,0005.51,0004.64
2023-05-18 09:32:00,,0830.9,5.00,0.00,29.9,28.3,00.0,38.3,31.4,26.0,0000.0,0010.15,0005.51,0004.63
2023-05-18 09:33:00,,0830.9,5.02,0.00,29.9,28.3,00.0,38.3,31.4,26.1,0000.0,0010.28,0005.52,0004.63
2023-05-18 09:34:00,,0830.9,5.00,0.00,29.9,28.3,00.0,38.3,31.5,26.1,0000.0,0010.33,0005.55,0004.63
2023-05-18 09:35:00,,0830.9,4.99,0.00,29.9,28.3,00.0,38.3,31.5,26.1,0000.0,0010.47,0005.57,0004.63
2023-05-18 09:36:00,,0831.0,5.00,0.00,29.9,28.3,00.0,38.3,31.5,26.1,0000.0,0010.52,0005.58,0004.62
2023-05-18 09:37:00,,0830.9,5.00,0.00,29.9,28.3,00.0,38.3,31.5,26.1,0000.0,0010.51,0005.57,0004.62
2023-05-18 09:38:00,,0830.9,4.99,0.00,29.9,28.3,00.0,38.3,31.5,26.1,0000.0,0010.50,0005.56,0004.61
2023-05-18 09:39:00,,0830.9,5.00,0.00,29.9,28.3,00.0,38.3,31.5,26.1,0000.0,0010.34,0005.51,0004.62
2023-05-18 09:40:00,,0830.9,5.02,0.00,29.9,28.3,00.0,38.3,31.5,26.2,0000.0,0010.30,0005.53,0004.64
2023-05-18 09:41:00,,0830.9,4.98,0.00,29.9,28.3,00.0,38.3,31.5,26.2,0000.0,0009.96,0005.52,0004.65
2023-05-18 09:42:00,,0830.9,5.00,0.00,29.9,28.3,00.0,38.3,31.5,26.2,0000.0,0009.77,0005.53,0004.67
2023-05-18 09:43:00,,0830.9,5.02,0.00,29.9,28.3,00.0,38.3,31.5,26.3,0000.0,0009.76,0005.54,0004.68
2023-05-18 09:44:00,,0830.9,4.99,0.00,29.9,28.3,00.0,38.3,31.5,26.3,0000.0,0009.58,0005.52,0004.68
2023-05-18 09:45:00,,0830.9,4.99,0.00,29.9,28.3,00.0,38.3,31.5,26.3,0000.0,0009.50,0005.50,0004.68
2023-05-18 09:46:00,,0830.9,5.01,0.00,29.9,28.3,00.0,38.3,31.5,26.3,0000.0,0009.32,0005.47,0004.68
2023-05-18 09:47:00,,0830.9,5.00,0.00,29.9,28.3,00.0,38.3,31.5,26.3,0000.0,0009.30,0005.46,0004.67
2023-05-18 09:48:00,,0830.9,4.99,0.00,29.9,28.3,00.0,38.3,31.5,26.3,0000.0,0009.15,0005.44,0004.67
2023-05-18 09:49:00,,0830.9,5.01,0.00,29.9,28.3,00.0,38.3,31.5,26.4,0000.0,0009.11,0005.45,0004.67
2023-05-18 09:50:00,,0830.9,5.00,0.00,29.9,28.3,00.0,38.3,31.5,26.4,0000.0,0009.30,0005.50,0004.68
2023-05-18 09:51:00,,0830.9,5.00,0.00,29.9,28.3,00.0,38.3,31.5,26.4,0000.0,0009.22,0005.47,0004.67
2023-05-18 09:52:00,,0830.9,5.00,0.00,29.9,28.3,00.0,38.3,31.5,26.4,0000.0,0009.29,0005.48,0004.66
2023-05-18 09:53:00,,0830.9,5.00,0.00,29.9,28.3,00.0,38.3,31.5,26.4,0000.0,0009.42,0005.50,0004.64
2023-05-18 09:54:00,,0830.9,5.00,0.00,29.9,28.3,00.0,38.3,31.5,26.5,0000.0,0009.43,0005.51,0004.63
2023-05-18 09:55:00,,0830.9,5.00,0.00,29.9,28.3,00.0,38.3,31.5,26.5,0000.0,0009.46,0005.54,0004.63
2023-05-18 09:56:00,,0830.9,5.00,0.00,29.9,28.3,00.0,38.3,31.5,26.4,0000.0,0009.46,0005.52,0004.61
2023-05-18 09:57:00,,0830.9,4.99,0.00,29.9,28.3,00.0,38.3,31.5,26.4,0000.0,0009.64,0005.53,0004.61
2023-05-18 09:58:00,,0830.9,5.00,0.00,29.9,28.3,00.0,38.3,31.5,26.5,0000.0,0009.99,0005.52,0004.64
2023-05-18 09:59:00,,0831.0,5.00,0.00,29.9,28.3,00.0,38.3,31.5,26.5,0000.0,0010.01,0005.55,0004.67
